TimeEDT,TemperatureF,Dew PointF,Humidity,Sea Level PressureIn,VisibilityMPH,Wind Direction,Wind SpeedMPH,Gust SpeedMPH,PrecipitationIn,Events,Conditions,WindDirDegrees,DateUTC
12:53 AM,73.9,73.0,97,30.01,4.0,SW,5.8,-,N/A,,Clear,230,2013-08-28 04:53:00
1:53 AM,73.9,73.0,97,30.00,5.0,WSW,5.8,-,N/A,,Clear,240,2013-08-28 05:53:00
2:53 AM,73.9,72.0,93,29.99,5.0,SW,6.9,-,N/A,,Clear,230,2013-08-28 06:53:00
3:53 AM,73.9,72.0,93,29.98,5.0,WSW,5.8,-,N/A,,Clear,250,2013-08-28 07:53:00
4:53 AM,72.0,71.1,97,29.99,4.0,WSW,4.6,-,N/A,,Clear,240,2013-08-28 08:53:00
5:53 AM,73.0,71.1,93,29.99,4.0,WSW,4.6,-,N/A,,Clear,240,2013-08-28 09:53:00
6:53 AM,72.0,71.1,97,29.99,4.0,WSW,4.6,-,N/A,,Clear,240,2013-08-28 10:53:00
7:16 AM,71.6,71.6,100,30.02,2.0,WSW,4.6,-,N/A,,Clear,240,2013-08-28 11:16:00
7:53 AM,72.0,71.1,97,30.00,3.0,Calm,Calm,-,N/A,,Clear,0,2013-08-28 11:53:00
8:53 AM,73.0,71.1,93,29.99,4.0,West,5.8,-,N/A,,Clear,260,2013-08-28 12:53:00
9:53 AM,77.0,71.1,82,29.98,7.0,WSW,6.9,-,N/A,,Clear,250,2013-08-28 13:53:00
10:53 AM,82.0,71.1,69,29.99,10.0,West,5.8,-,N/A,,Clear,260,2013-08-28 14:53:00
11:53 AM,84.9,70.0,61,29.98,10.0,WSW,8.1,-,N/A,,Clear,250,2013-08-28 15:53:00
12:53 PM,87.1,70.0,57,29.98,10.0,WSW,8.1,-,N/A,,Clear,250,2013-08-28 16:53:00
1:53 PM,89.1,68.0,50,29.96,10.0,West,11.5,19.6,N/A,,Partly Cloudy,260,2013-08-28 17:53:00
2:53 PM,90.0,66.9,46,29.95,10.0,West,10.4,20.7,N/A,,Mostly Cloudy,260,2013-08-28 18:53:00
3:53 PM,91.9,66.9,44,29.94,10.0,West,10.4,19.6,N/A,,Partly Cloudy,260,2013-08-28 19:53:00
4:53 PM,90.0,64.9,43,29.93,10.0,West,8.1,17.3,N/A,,Partly Cloudy,280,2013-08-28 20:53:00
5:53 PM,90.0,66.0,45,29.92,10.0,West,9.2,-,N/A,,Mostly Cloudy,270,2013-08-28 21:53:00
6:53 PM,89.1,66.9,48,29.91,10.0,West,6.9,-,N/A,,Clear,260,2013-08-28 22:53:00
7:53 PM,84.9,68.0,57,29.91,10.0,WSW,5.8,-,N/A,,Scattered Clouds,240,2013-08-28 23:53:00
8:53 PM,82.0,69.1,65,29.92,10.0,WSW,5.8,-,N/A,,Scattered Clouds,240,2013-08-29 00:53:00
9:53 PM,81.0,68.0,65,29.94,10.0,WSW,5.8,-,N/A,,Overcast,250,2013-08-29 01:53:00
10:53 PM,81.0,66.9,62,29.96,10.0,West,5.8,-,N/A,,Overcast,260,2013-08-29 02:53:00
11:53 PM,79.0,68.0,69,29.95,10.0,West,4.6,-,N/A,,Mostly Cloudy,260,2013-08-29 03:53:00